Location: Staunton
(38.1490°N, 79.0720°W)
Time: 11:47:31
(UTC-04:00)

ISS - Pass Details

Date: 14 September 2018
Orbit: 403 x 408 km, 51.6° (Epoch: 23 September)

Event Time Altitude Azimuth Distance (km) Brightness Sun altitude
Exits shadow 06:00:06 - 317° (NW) 2,024 -0.6 -11.9°
Reaches altitude 10° 06:01:33 10° 325° (NW) 1,461 -1.2 -11.6°
Maximum altitude 06:04:35 35° 33° (NNE) 674 -2.3 -11.0°
Drops below altitude 10° 06:07:37 10° 101° (E) 1,452 0.2 -10.4°
Sets 06:09:47 0° 111° (ESE) 2,307 1.1 -10.0°
